Location: Kershaw
(34.5481°N, 80.5823°W)
Time: 22:25:45
(UTC+00:00)

Transit 4A - Pass Details

Date: 14 October 2022
Orbit: 871 x 972 km, 66.8° (Epoch: 08 December)

Event Time Altitude Azimuth Distance (km) Brightness Sun altitude
Rises 10:38:56 0° 326° (NW) 3,468 10.5 -10.7°
Reaches altitude 10° 10:41:30 10° 321° (NW) 2,523 9.8 -10.2°
Maximum altitude 10:47:01 46° 250° (WSW) 1,157 8.1 -9.0°
Drops below altitude 10° 10:52:32 10° 178° (S) 2,521 10.3 -7.9°
Sets 10:55:06 0° 172° (S) 3,465 11.1 -7.4°
